Weather History for Quincy, IL

Change the Weather History Date:

Saturday, April 20, 2013

  Actual Average Record
Temperature  
Mean Temperature 39 °F 55 °F  
Max Temperature 51 °F 65 °F 90 °F (1987)
Min Temperature 27 °F 45 °F 27 °F (2013)
Degree Days  
Heating Degree Days 26 11  
Month to date heating degree days 321 278  
Since 1 July heating degree days 5374 5338  
Cooling Degree Days 0 1  
Month to date cooling degree days 4 7  
Year to date cooling degree days 4 9  
Moisture  
Dew Point 26 °F    
Average Humidity 63    
Maximum Humidity 92    
Minimum Humidity 34    
Precipitation  
Precipitation 0.00 in 0.13 in 1.91 in (1976)
Month to date precipitation 5.69 2.37  
Year to date precipitation 13.31 8.23  
Sea Level Pressure  
Sea Level Pressure 30.25 in    
Wind  
Wind Speed 5 mph (NNW)    
Max Wind Speed 12 mph    
Max Gust Speed 16 mph    
Visibility 10 miles    
Events      
T = Trace of Precipitation, MM = Missing Value Source: NWS Daily Summary

Daily Weather History Graph

Daily Weather History Graph

Search for Another Location

Airport:

Trip Planner

Search our weather history database for the weather conditions in past years. The results will help you decide how hot, cold, wet, or windy it might be!

Date:

Astronomy

Apr. 20, 2013 Rise Set
Actual Time 6:19 AM CDT 7:48 PM CDT
Civil Twilight 5:50 AM CDT 8:17 PM CDT
Nautical Twilight 5:16 AM CDT 8:51 PM CDT
Astronomical Twilight 4:40 AM CDT 9:27 PM CDT
Moon 2:32 PM CDT (4/20) 3:08 AM CDT (4/20)
Length of Visible Light 14h 26m
Length of Day
13h 29m
Waxing Gibbous, 71% of the Moon is Illuminated
Apr 20
Waxing Gibbous
Apr 25
Full
May 2
Last Quarter
May 9
New
May 17
First Quarter

Hourly Weather History & Observations

Time (CDT) Temp. Windchill Dew Point Humidity Pressure Visibility Wind Dir Wind Speed Gust Speed Precip Events Conditions
12:54 AM 34.0 °F 28.8 °F 26.1 °F 73% 30.09 in 10.0 mi NNW 5.8 mph - N/A   Clear
1:54 AM 32.0 °F 25.6 °F 26.1 °F 79% 30.11 in 10.0 mi NW 6.9 mph - N/A   Clear
2:54 AM 30.9 °F 26.2 °F 26.1 °F 82% 30.11 in 10.0 mi NW 4.6 mph - N/A   Clear
3:54 AM 30.0 °F 22.4 °F 25.0 °F 82% 30.12 in 10.0 mi NNW 8.1 mph - N/A   Clear
4:54 AM 30.0 °F - 25.0 °F 82% 30.15 in 10.0 mi Calm Calm - N/A   Clear
5:54 AM 27.0 °F 20.5 °F 24.1 °F 89% 30.18 in 10.0 mi SW 5.8 mph - N/A   Clear
6:54 AM 28.9 °F 25.2 °F 25.0 °F 85% 30.22 in 10.0 mi WSW 3.5 mph - N/A   Clear
7:54 AM 33.1 °F 30.0 °F 27.0 °F 78% 30.24 in 10.0 mi WNW 3.5 mph - N/A   Clear
8:54 AM 36.0 °F 31.1 °F 26.1 °F 67% 30.27 in 10.0 mi NW 5.8 mph - N/A   Clear
9:54 AM 37.9 °F 32.7 °F 27.0 °F 65% 30.29 in 10.0 mi WNW 6.9 mph - N/A   Clear
10:54 AM 39.9 °F 37.8 °F 27.0 °F 60% 30.30 in 10.0 mi Variable 3.5 mph - N/A   Clear
11:54 AM 44.1 °F 40.8 °F 28.9 °F 55% 30.31 in 10.0 mi NW 5.8 mph - N/A   Clear
12:54 PM 45.0 °F 41.8 °F 26.1 °F 48% 30.30 in 10.0 mi NW 5.8 mph - N/A   Clear
1:54 PM 46.9 °F - 24.1 °F 41% 30.30 in 10.0 mi Variable 3.5 mph - N/A   Clear
2:54 PM 48.0 °F - 21.0 °F 34% 30.28 in 10.0 mi Calm Calm - N/A   Clear
3:54 PM 48.9 °F - 26.1 °F 41% 30.27 in 10.0 mi Variable 3.5 mph - N/A   Clear
4:54 PM 48.9 °F - 23.0 °F 36% 30.27 in 10.0 mi Calm Calm - N/A   Clear
5:54 PM 50.0 °F - 24.1 °F 36% 30.26 in 10.0 mi ENE 4.6 mph - N/A   Clear
6:54 PM 48.0 °F - 26.1 °F 42% 30.27 in 10.0 mi ENE 8.1 mph - N/A   Partly Cloudy
7:54 PM 45.0 °F 42.6 °F 30.9 °F 58% 30.29 in 10.0 mi ENE 4.6 mph - N/A   Mostly Cloudy
8:54 PM 45.0 °F 41.8 °F 28.9 °F 53% 30.31 in 10.0 mi East 5.8 mph - N/A   Mostly Cloudy
9:54 PM 44.1 °F 40.8 °F 28.0 °F 53% 30.33 in 10.0 mi East 5.8 mph - N/A   Clear
10:54 PM 43.0 °F 37.2 °F 28.0 °F 56% 30.33 in 10.0 mi ESE 10.4 mph - N/A   Clear
11:54 PM 42.1 °F 36.1 °F 30.0 °F 62% 30.32 in 10.0 mi ESE 10.4 mph - N/A   Clear